Location: Dammartin
(48.9032°N, 1.6195°E)
Time: 15:29:32
(UTC+00:00)

Okean O Rocket - Pass Details

Date: 03 February 2023
Orbit: 620 x 643 km, 98.1° (Epoch: 30 March)

Event Time Altitude Azimuth Distance (km) Brightness Sun altitude
Rises 19:14:41 0° 174° (S) 2,908 4.9 -23.3°
Reaches altitude 10° 19:16:53 10° 178° (S) 2,009 4.1 -23.7°
Maximum altitude 19:21:12 60° 258° (WSW) 731 2.1 -24.4°
Drops below altitude 10° 19:25:36 10° 339° (NNW) 2,040 4.5 -25.1°
Sets 19:27:51 0° 343° (NNW) 2,957 5.3 -25.5°
